This demonstration page uses our WeatherBlox Daily Observations layout. Learn more.

Left ArrowRight Arrow

44.8408, -93.29828

Hourly Observations for July 4, 2021

Temp ( °F °C ) Dew Point ( °F °C ) Humidity (%) Winds ( mph kmh ) Pressure ( in mb ) Visibility ( mi km ) Precip ( " mm )
12:53 am 00:53 Mostly Cloudy 78 25.6 64 17.8 62 62 S 9 15 29.88 1012 10 16 0.00 0.00
1:53 am 01:53 Mostly Cloudy 77 25 65 18.3 66 66 S 6 9 29.86 1011 10 16 0.00 0.00
2:53 am 02:53 Mostly Cloudy 77 25 66 18.9 69 69 SW 7 11 29.86 1011 10 16 0.00 0.00
3:53 am 03:53 Mostly Cloudy 75 23.9 66 18.9 74 74 SSW 6 9 29.85 1011 10 16 0.00 0.00
4:53 am 04:53 Mostly Cloudy 75 23.9 65 18.3 71 71 SSW 6 9 29.85 1011 10 16 0.00 0.00
5:53 am 05:53 Mostly Cloudy 75 23.9 65 18.3 71 71 SSW 7 11 29.85 1011 9 14 0.00 0.00
6:53 am 06:53 Mostly Cloudy 75 23.9 65 18.3 71 71 SSW 9 15 29.84 1010 10 16 0.00 0.00
7:53 am 07:53 Mostly Cloudy 78 25.6 65 18.3 64 64 SSW 12 19 29.83 1010 10 16 0.00 0.00
8:53 am 08:53 Mostly Cloudy 81 27.2 64 17.8 57 57 SW 15 24 29.83 1010 10 16 0.00 0.00
9:53 am 09:53 Partly Cloudy 83 28.3 62 16.7 49 49 SW 17 28 29.82 1010 10 16 0.00 0.00
10:53 am 10:53 Partly Cloudy 86 30 63 17.2 46 46 SW 16 26 29.80 1009 10 16 0.00 0.00
11:53 am 11:53 Partly Cloudy 88 31.1 62 16.7 42 42 WSW 17 28 29.78 1009 10 16 0.00 0.00
12:53 pm 12:53 Partly Cloudy 91 32.8 63 17.2 39 39 SSW 18 30 29.76 1008 10 16 0.00 0.00
1:53 pm 13:53 Partly Cloudy 91 32.8 64 17.8 41 41 SSW 17 28 29.75 1008 10 16 0.00 0.00
2:53 pm 14:53 Partly Cloudy 92 33.3 65 18.3 41 41 SSW 18 30 29.74 1007 10 16 0.00 0.00
3:53 pm 15:53 Partly Cloudy 93 33.9 65 18.3 40 40 SW 17 28 29.74 1007 10 16 0.00 0.00
4:53 pm 16:53 Partly Cloudy 94 34.4 66 18.9 40 40 SW 17 28 29.74 1007 10 16 0.00 0.00
5:53 pm 17:53 Partly Cloudy 94 34.4 68 20 43 43 SW 20 31 29.73 1007 10 16 0.00 0.00
6:53 pm 18:53 Partly Cloudy 93 33.9 69 20.6 46 46 SW 13 20 29.73 1007 10 16 0.00 0.00
7:53 pm 19:53 Partly Cloudy 91 32.8 69 20.6 49 49 SW 13 20 29.73 1007 10 16 0.00 0.00
8:53 pm 20:53 Partly Cloudy 89 31.7 69 20.6 52 52 SSW 10 17 29.74 1007 10 16 0.00 0.00
9:53 pm 21:53 Partly Cloudy 87 30.6 68 20 53 53 SW 13 20 29.75 1008 10 16 0.00 0.00
10:53 pm 22:53 Partly Cloudy 86 30 68 20 55 55 SW 13 20 29.76 1008 10 16 0.00 0.00
11:53 pm 23:53 Partly Cloudy 84 28.9 68 20 59 59 SW 12 19 29.78 1008 10 16 0.00 0.00

Powered by AerisWeather